Location: São Paulo
(23.5507°S, 46.6334°W)
Time: 19:31:59
(UTC-03:00)

Vanguard 2 Rocket - Pass Details

Date: 18 February 2026
Orbit: 553 x 3286 km, 32.9° (Epoch: 11 March)

Event Time Altitude Azimuth Distance (km) Brightness Sun altitude
Exits shadow 01:20:30 15° 121° (ESE) 2,874 9.7 -51.9°
Drops below altitude 10° 01:22:01 10° 118° (ESE) 3,426 10.2 -51.7°
Sets 01:26:04 0° 113° (ESE) 4,873 11.0 -51.3°
